Location: Bucharest
(44.4268°N, 26.1025°E)
Time: 06:47:37
(UTC+03:00)

Oscar 19 - Pass Details

Date: 08 July 2022
Orbit: 773 x 790 km, 98.8° (Epoch: 14 August)

Event Time Altitude Azimuth Distance (km) Brightness Sun altitude
Rises 04:38:09 0° 17° (NNE) 3,260 15.1 -9.3°
Reaches altitude 10° 04:40:30 10° 20° (NNE) 2,329 14.3 -9.0°
Maximum altitude 04:45:35 63° 102° (ESE) 862 11.1 -8.4°
Drops below altitude 10° 04:50:39 10° 184° (S) 2,316 12.7 -7.7°
Enters shadow 04:52:56 - 187° (S) 3,226 13.4 -7.4°
